This is the latest recevied weather packets stored in our database for station/object DF9PM-13. If no packets are shown the sender has not sent any weather packets the latest 10 day(s).
| Time | Temp. | Humidity | Pressure | Rain* | Wind** | Luminosity | Snow |
|---|---|---|---|---|---|---|---|
| 1777547351 | 18.89° C | 18% | 1027.6 hPa | - | - | - | - |
| 1777547051 | 18.89° C | 18% | 1027.8 hPa | - | - | - | - |
| 1777546751 | 18.89° C | 18% | 1027.7 hPa | - | - | - | - |
| 1777545851 | 18.33° C | 19% | 1028 hPa | - | - | - | - |
| 1777545551 | 17.78° C | 19% | 1028 hPa | - | - | - | - |
| 1777545251 | 16.67° C | 19% | 1028.1 hPa | - | - | - | - |
| 1777544951 | 16.67° C | 20% | 1028.2 hPa | - | - | - | - |
| 1777544650 | 16.67° C | 20% | 1028.2 hPa | - | - | - | - |
| 1777544350 | 17.22° C | 20% | 1028.1 hPa | - | - | - | - |
| 1777544050 | 16.67° C | 21% | 1028.1 hPa | - | - | - | - |
| 1777543750 | 17.78° C | 20% | 1028.1 hPa | - | - | - | - |
| 1777543450 | 17.78° C | 20% | 1028.1 hPa | - | - | - | - |
| 1777543150 | 17.22° C | 21% | 1028.2 hPa | - | - | - | - |
| 1777542850 | 15.56° C | 22% | 1028.2 hPa | - | - | - | - |
| 1777542550 | 16.67° C | 21% | 1028.2 hPa | - | - | - | - |
| 1777542250 | 15.56° C | 23% | 1028.3 hPa | - | - | - | - |
| 1777541950 | 16.11° C | 21% | 1028.3 hPa | - | - | - | - |
| 1777541650 | 17.22° C | 21% | 1028.3 hPa | - | - | - | - |
| 1777541350 | 16.11° C | 22% | 1028.3 hPa | - | - | - | - |
| 1777541050 | 15.56° C | 23% | 1028.2 hPa | - | - | - | - |
| 1777540749 | 15.56° C | 22% | 1028.4 hPa | - | - | - | - |
| 1777540450 | 16.11° C | 22% | 1028.3 hPa | - | - | - | - |
| 1777540149 | 16.67° C | 22% | 1028.5 hPa | - | - | - | - |
| 1777539849 | 15.56° C | 23% | 1028.6 hPa | - | - | - | - |
| 1777538949 | 14.44° C | 23% | 1028.8 hPa | - | - | - | - |
* Rain since midnight (hover to see other rain measurements)
** Current wind speed in m/s (hover to see current wind gust speed)